sat.trackr.live / text

‹ back to catalog

STARLINK-32205

NORAD 60266 · 2024-131M

PAYLOAD ACTIVE UNKNOWN

§ Identity

Operator
Country
US
Launch date
2024-07-27
Launch site
AFETR
Launch vehicle
Mass (kg)
RCS (m²)

Purposes: comms

External: N2YO · Heavens-Above · Gunter

§ Orbital elements

Epoch: 2026-05-25T04:00:03.998880Z

Period
94.01 min
Inclination
53.1607°
Eccentricity
0.0001262
Mean motion
15.31675338 rev/d
Perigee alt
469.9 km
Apogee alt
471.7 km
Semi-major
6,849.0 km
B*
1.7151e-3
RAAN
57.3881°
Arg perigee
79.5332°
Mean anomaly
334.1614°
Rev number
586

§ Raw data

STARLINK-322051 60266U 24131M   26145.16671295  .00053196  00000+0  17151-2 0  99962 60266  53.1607  57.3881 0001262  79.5332 334.1614 15.31675338  5869

JSON: /api/v1/satellites/60266 · /tle

For live sub-satellite position, see the globe view (requires WebGL).

§ Visibility from observer

Set your observer location to see the next 7 days of passes ≥ 10°. The values pass through the URL so the page stays shareable.

No JS? Fill the form by hand. The geolocation button needs JavaScript.